#timestamp,LO_Frequency,Hit,StdDev 
1521968415.4,286046995.6,N
1521968435.3,286046995.4,N
1521968455.1,286046995.0,N
1521968475.9,286046995.5,N
1521968495.7,286046995.8,N
1521968515.5,286046995.8,N
1521968535.4,286046996.0,N
1521968555.2,286046996.1,N
1521968575.0,286046995.9,N
1521968575.9,286046995.9,N
1521968595.8,286046995.9,N
1521968615.6,286046995.7,N
1521968635.5,286046995.1,N
1521968655.3,286046997.8,N
1521968675.1,286046997.7,N
1521968695.9,286046995.2,N
1521968715.7,286046995.0,N
1521968735.6,286046993.4,Y
1521968755.4,286046999.2,P
1521968775.2,286046998.7,N
1521968795.1,286047001.2,N
1521968796.0,286047001.2,N
1521968815.8,286046998.3,N
1521968835.6,286046998.6,N
1521968855.5,286046998.7,N
1521968875.3,286046999.5,N
1521968895.2,286047001.2,N
1521968915.9,286046998.4,N
1521968935.7,286047000.8,N
1521968955.6,286047000.0,N
1521968975.4,286047001.6,N
1521968995.3,286047000.0,N
1521969015.1,286046998.4,N
1521969016.0,286046998.4,N
1521969035.8,286046998.5,N
1521969055.7,286047000.5,N
1521969075.5,286046998.2,N
1521969095.4,286046998.7,N
1521969115.2,286046998.9,N
1521969135.0,286046998.9,N
1521969135.9,286046998.9,N
1521969155.8,286046999.0,N
1521969175.6,286046997.7,N
1521969195.5,286046997.5,N
1521969215.3,286046995.5,Y
1521969235.1,286046997.0,P
1521969255.9,286046998.5,N
1521969275.7,286047000.8,N
1521969295.5,286047000.0,N
1521969315.4,286046998.5,N
1521969335.2,286046998.4,N
1521969355.1,286046996.7,N
1521969356.0,286046996.7,N
1521969375.8,286046999.4,N
1521969395.6,286046996.9,N
1521969415.5,286046998.8,N
1521969435.3,286047001.2,N
1521969455.2,286047000.7,N
1521969475.9,286046999.6,N
1521969495.7,286046997.0,N
1521969515.6,286046997.5,N
1521969535.4,286046998.0,N
1521969555.2,286046997.5,N
1521969575.1,286046996.0,N
1521969576.0,286046996.0,N
1521969595.8,286046995.6,N
1521969615.7,286046997.3,N
1521969635.5,286046997.7,N
1521969655.4,286046995.6,N
1521969675.2,286046994.0,Y
1521969695.0,286046995.0,P
1521969695.9,286046995.0,P
1521969715.8,286046999.5,N
1521969735.6,286046998.5,N
1521969755.4,286047011.9,Y
1521969775.3,286047002.8,P
1521969795.1,286047001.9,N
1521969815.9,286047001.6,N
1521969835.7,286047001.9,N
1521969855.5,286047002.2,N
1521969875.4,286047001.8,N
1521969895.2,286047001.5,N
1521969915.0,286047003.5,N
1521969915.9,286047003.5,N
1521969935.8,286047003.1,N
1521969955.6,286047005.3,Y
1521969975.5,286047003.1,P
1521969995.3,286047004.2,P
1521970015.1,286047003.1,P
1521970035.9,286047005.3,Y
1521970055.7,286047003.6,P
1521970075.6,286046999.9,N
1521970095.4,286047002.8,N
1521970115.2,286047000.9,N
1521970135.1,286047000.1,N
1521970136.0,286047000.1,N
1521970155.8,286047000.5,N
1521970175.6,286047000.3,N
1521970195.5,286046999.8,N
1521970215.3,286047000.7,N
1521970235.2,286047000.7,N
1521970255.9,286046999.7,N
1521970275.7,286047002.3,N
1521970295.6,286047005.3,Y
1521970315.4,286047003.9,P
1521970335.2,286047001.6,N
1521970355.1,286047001.9,N
1521970356.0,286047001.9,N
1521970375.8,286047001.0,N
1521970395.7,286047000.7,N
1521970415.5,286047000.4,N
1521970435.3,286047004.0,Y
1521970455.2,286047002.6,P
1521970475.0,286047002.6,P
1521970475.9,286047002.6,P
1521970495.8,286047002.0,Y
1521970515.6,286047000.8,P
1521970535.4,286047000.1,N
1521970585.3,286046999.9,E
1521970595.2,286047000.4,N
1521970615.1,286047000.8,P
1521970616.0,286047000.8,P
1521970635.8,286046999.9,N
1521970655.6,286047000.7,N
1521970675.5,286046998.7,Y
1521970695.3,286046998.9,P
1521970715.2,286046998.5,N
1521970735.9,286046999.3,N
1521970755.7,286046998.8,N
1521970775.6,286046998.2,N
1521970795.4,286046998.1,N
1521970815.2,286047000.7,N
1521970835.1,286047000.5,N
1521970836.0,286047000.5,N
1521970855.8,286047000.2,N
1521970875.7,286047002.8,N
1521970895.5,286047000.6,N
1521970915.3,286047000.0,N
1521970935.2,286047000.0,N
1521970955.0,286047001.0,N
1521970955.9,286047001.0,N
1521970975.8,286046998.2,N
1521970995.6,286046998.2,N
1521971015.4,286047000.3,N
1521971035.3,286047000.5,N
1521971055.1,286047000.9,N
1521971075.8,286047000.6,N
1521971095.7,286047002.8,N
1521971115.5,286047002.7,N
1521971135.4,286046999.8,N
1521971155.2,286047002.1,N
1521971175.0,286047000.7,N
1521971175.9,286047000.7,N
1521971195.8,286046998.2,N
1521971215.6,286047001.1,N
1521971235.4,286047000.3,N
1521971255.3,286047002.8,N
1521971275.1,286047000.1,N
1521971295.9,286046999.9,N
1521971315.7,286047002.4,N
1521971335.5,286047002.2,N
1521971355.4,286047003.9,Y
1521971375.2,286047002.2,P
1521971395.1,286047002.8,P
1521971396.0,286047002.8,P
1521971415.8,286047000.1,N
1521971435.6,286047002.3,N
1521971455.5,286047002.3,N
1521971475.3,286047000.3,N
1521971495.2,286046999.9,N
1521971515.9,286047000.1,N
1521971535.7,286046999.8,N
1521971555.6,286047002.3,N
1521971575.4,286047001.6,N
1521971595.2,286047000.1,N
1521971615.1,286047000.4,N
1521971616.0,286047000.4,N
1521971635.8,286047004.4,Y
1521971655.7,286046999.7,P
1521971675.5,286047001.5,N
1521971695.4,286047004.2,P
1521971715.2,286047004.4,N
1521971735.0,286047003.1,N
1521971735.9,286047003.1,N
1521971755.8,286047002.9,N
1521971775.6,286047002.0,N
1521971795.5,286047001.4,N
1521971815.3,286047004.3,Y
1521971835.1,286047002.8,P
1521971855.9,286047002.8,P
1521971875.7,286047000.6,N
1521971895.6,286047000.3,N
1521971915.4,286047001.1,N
1521971935.4,286047000.4,N
1521971955.2,286047000.0,N
1521971975.1,286047000.1,N
1521971976.0,286047000.1,N
1521971995.8,286047001.6,N
